[[{"header":{"parameterUnit":"m.s-1","parameterCategory":2,"la1":30.2992,"la2":30.254,"lo1":-89.0895,"lo2":-89.0443,"dy":0.0025,"dx":0.0025,"nx":19,"ny":19,"refTime":"2026-05-03T09:00:00:Z","depth":"0","parameterNumber":2,"parameterNumberName":"U-component_of_CURRENTS"},"data":[0,0,0,0.4577,0.4579,0.4699,0.47,0.4796,0.4797,0,0,0,0,0,0,0,0,0,0,0,0.4517,0.4518,0.4576,0.458,0.4699,0.47,0.4796,0.4797,0,0,0,0,0,0,0,0,0,0,0,0.4517,0.4517,0.4518,0.458,0.4699,0.47,0.4796,0.4717,0,0,0,0,0,0,0,0,0,0,0.4607,0.4554,0.4517,0.4518,0.4581,0.4699,0.47,0.4714,0.4722,0.4728,0,0.4744,0,0.4785,0.4803,0.4803,0,0,0,0.457,0.4548,0.4594,0.4518,0.4582,0.4699,0.4643,0.4719,0.4728,0.4739,0.4746,0.4751,0.4786,0.4803,0.4804,0.4992,0.4993,0,0,0.4564,0.4526,0.4588,0.46,0.4609,0.4639,0.4647,0.4725,0.4723,0.4747,0.4754,0.4788,0.4804,0.4805,0.499,0.4992,0,0,0,0.4551,0.4521,0.4567,0.4595,0.4628,0.4643,0.4651,0.4719,0.4738,0.4755,0.4789,0.4805,0.4806,0.4989,0.4991,0.5034,0,0,0,0.4547,0.4516,0.4563,0.4541,0.4627,0.4682,0.4643,0.4732,0.4743,0.4788,0.4805,0.4807,0.4987,0.499,0.503,0.5036,0,0,0,0.4512,0.4512,0.4528,0.4539,0.4599,0.4682,0.4705,0.4735,0.4764,0.4803,0.4807,0.4986,0.4989,0.5026,0.503,0.5115,0,0,0,0.4468,0.4502,0.4526,0.4581,0.4598,0.4716,0.4705,0.4776,0.4812,0.4805,0.4987,0.4991,0.5024,0.5027,0.5111,0.5046,0.5061,0,0,0.4493,0.4503,0.4542,0.4569,0.4669,0.4699,0.4812,0.4841,0.4869,0.4952,0.4957,0.5031,0.503,0.5114,0.5236,0.5244,0,0,0,0.4541,0.4562,0.46,0.466,0.4744,0.4819,0.4869,0.4924,0.502,0.491,0.5086,0.5085,0.5136,0.509,0.5099,0.4961,0.5006,0.5005,0.5005,0.4488,0.4562,0.4613,0.4706,0.4783,0.491,0.4991,0.508,0.5083,0.5156,0.5162,0.5309,0.5264,0.5268,0.5129,0.5217,0.5217,0.5217,0.5217,0.4502,0.452,0.4607,0.4682,0.4781,0.488,0.5092,0.5149,0.5312,0.528,0.5328,0.5189,0.5279,0.5127,0.5221,0.522,0.522,0.5219,0.5219,0.4438,0.4453,0.45,0.4605,0.4711,0.4875,0.5043,0.5219,0.5344,0.5411,0.5385,0.5382,0.5213,0.5445,0.5446,0.5446,0.5447,0.5447,0.5447,0.433,0.4384,0.4423,0.4552,0.4589,0.4761,0.5047,0.518,0.5374,0.5439,0.5438,0.5257,0.5379,0.5328,0.5454,0.5453,0.5452,0.5451,0.5451,0.4254,0.4291,0.4345,0.438,0.4503,0.4556,0.4868,0.5123,0.531,0.5378,0.5308,0.5469,0.5451,0.5443,0.5396,0.5532,0.5532,0.5532,0.5532,0.4174,0.4215,0.422,0.424,0.4318,0.4448,0.4492,0.4732,0.5045,0.5127,0.5266,0.5164,0.5166,0.5126,0.5126,0.507,0.512,0.5119,0.5119,0.4111,0.4138,0.4076,0.4127,0.418,0.4259,0.4203,0.4227,0.4698,0.509,0.5093,0.5111,0.4947,0.4962,0.4884,0.4895,0.4798,0,0]},{"header":{"parameterUnit":"m.s-1","parameterCategory":2,"la1":30.2992,"la2":30.254,"lo1":-89.0895,"lo2":-89.0443,"dy":0.0025,"dx":0.0025,"nx":19,"ny":19,"refTime":"2026-05-03T09:00:00:Z","depth":"0","parameterNumber":3,"parameterNumberName":"V-component_of_CURRENTS"},"data":[0,0,0,-0.004,-0.0041,-0.0134,-0.0135,-0.0269,-0.027,0,0,0,0,0,0,0,0,0,0,0,-0.0008,-0.0008,-0.004,-0.0041,-0.0134,-0.0135,-0.0269,-0.027,0,0,0,0,0,0,0,0,0,0,0,-0.0008,-0.0008,-0.0008,-0.0041,-0.0134,-0.0135,-0.0269,-0.0201,0,0,0,0,0,0,0,0,0,0,-0.0111,-0.0057,-0.0008,-0.0008,-0.0042,-0.0134,-0.0135,-0.0198,-0.0205,-0.0223,0,-0.0221,0,-0.0237,-0.0277,-0.0277,0,0,0,-0.0067,-0.0051,-0.0084,-0.0008,-0.0042,-0.0134,-0.0099,-0.0202,-0.021,-0.0233,-0.0223,-0.0228,-0.0239,-0.0278,-0.0278,-0.0302,-0.0302,0,0,-0.0061,-0.0024,-0.0078,-0.0088,-0.0044,-0.0096,-0.0102,-0.0207,-0.0202,-0.0223,-0.0231,-0.0242,-0.0278,-0.0279,-0.0303,-0.0302,0,0,0,-0.0029,-0.002,-0.0051,-0.0083,-0.0092,-0.0098,-0.0105,-0.0197,-0.0209,-0.0232,-0.0243,-0.0279,-0.028,-0.0303,-0.0302,-0.0106,0,0,0,-0.0028,0.0,-0.0048,-0.0027,-0.0089,-0.014,-0.0092,-0.0202,-0.0214,-0.0243,-0.0279,-0.0281,-0.0304,-0.0303,-0.0113,-0.0005,0,0,0,-0.0007,0.0002,-0.0004,-0.0024,-0.0054,-0.0138,-0.0157,-0.0206,-0.022,-0.0278,-0.0282,-0.0304,-0.0303,-0.0119,-0.0017,0.0109,0,0,0,0.0025,0.0055,-0.0002,0.0037,-0.0053,-0.0053,-0.0157,-0.0179,-0.0217,-0.028,-0.0304,-0.0303,-0.0121,-0.0024,0.0101,0.034,0.0395,0,0,0.0084,0.0063,0.0088,0.0035,0.0081,-0.0044,0.0003,-0.0101,-0.0208,-0.0277,-0.0278,-0.0111,-0.0017,0.0107,0.041,0.0465,0,0,0,0.012,0.0148,0.0151,0.0163,0.0127,0.0129,0.0014,-0.0034,-0.0102,-0.0222,-0.0141,-0.0089,-0.0015,0.011,0.0152,-0.0031,-0.0297,-0.0297,-0.0297,0.0263,0.0244,0.0307,0.0291,0.0286,0.0239,0.0237,0.0145,0.001,0.0005,0.0049,0.0247,0.0382,0.0417,0.0223,0.0008,0.0009,0.001,0.001,0.0392,0.0436,0.0425,0.0468,0.0459,0.048,0.0433,0.0367,0.036,0.0196,0.0257,0.0282,0.0476,0.0252,0.0022,0.002,0.0018,0.0017,0.0016,0.0491,0.0512,0.0525,0.0596,0.0672,0.0646,0.0785,0.0682,0.0556,0.0613,0.071,0.0708,0.0534,0.0628,0.0629,0.063,0.0631,0.0632,0.0633,0.0578,0.06,0.0672,0.074,0.0816,0.0931,0.0984,0.1032,0.1041,0.096,0.0961,0.0596,0.0436,0.0436,0.0649,0.0646,0.0644,0.0642,0.0641,0.0699,0.0688,0.0825,0.0902,0.1103,0.1354,0.1382,0.1589,0.1573,0.1645,0.1154,0.1144,0.111,0.1075,0.109,0.1459,0.1459,0.1459,0.1459,0.0777,0.0779,0.0973,0.1137,0.1364,0.1549,0.1983,0.2103,0.183,0.1629,0.1379,0.1251,0.1226,0.1184,0.1147,0.1154,0.1531,0.153,0.153,0.0865,0.0915,0.1077,0.1221,0.148,0.1813,0.2279,0.2533,0.2015,0.1496,0.1078,0.1075,0.0833,0.0809,0.0686,0.0649,0.064,0,0]}],[{"header":{"parameterUnit":"m.s-1","parameterCategory":2,"la1":30.2992,"la2":30.254,"lo1":-89.0895,"lo2":-89.0443,"dy":0.0025,"dx":0.0025,"nx":19,"ny":19,"refTime":"2026-05-03T09:00:00:Z","depth":"2","parameterNumber":2,"parameterNumberName":"U-component_of_CURRENTS"},"data":[0,0,0,0.3297,0.3299,0.3391,0.3392,0.3539,0.3541,0,0,0,0,0,0,0,0,0,0,0,0.3265,0.3266,0.3297,0.33,0.3391,0.3392,0.3539,0.3541,0,0,0,0,0,0,0,0,0,0,0,0.3264,0.3266,0.3267,0.33,0.3391,0.3392,0.3539,0.3458,0,0,0,0,0,0,0,0,0,0,0.3363,0.3317,0.3265,0.3267,0.3301,0.3391,0.3392,0.3453,0.3463,0.3511,0,0.354,0,0.3554,0.3553,0.3554,0,0,0,0.3283,0.3308,0.3357,0.3267,0.3302,0.3391,0.3345,0.3458,0.3469,0.3524,0.3543,0.3548,0.3557,0.3554,0.3555,0.3746,0.3746,0,0,0.3278,0.3258,0.3349,0.3364,0.3347,0.3342,0.3348,0.3464,0.3472,0.3543,0.3551,0.3559,0.3555,0.3557,0.3745,0.3746,0,0,0,0.3275,0.3254,0.3298,0.3358,0.3378,0.3346,0.3352,0.3466,0.3488,0.3553,0.3561,0.3556,0.3558,0.3744,0.3745,0.3792,0,0,0,0.3271,0.3254,0.3296,0.3281,0.3376,0.3415,0.3351,0.348,0.3493,0.356,0.3556,0.356,0.3743,0.3745,0.3789,0.3828,0,0,0,0.3257,0.3251,0.3273,0.328,0.333,0.3414,0.344,0.3482,0.35,0.3554,0.3561,0.3743,0.3744,0.3786,0.3823,0.3891,0,0,0,0.3216,0.3249,0.3273,0.3322,0.333,0.342,0.3439,0.3515,0.3566,0.3557,0.3743,0.3745,0.3785,0.382,0.3887,0.3777,0.3785,0,0,0.3233,0.325,0.3283,0.3308,0.3375,0.3405,0.349,0.3569,0.3607,0.3703,0.3707,0.379,0.3823,0.389,0.3879,0.3883,0,0,0,0.3272,0.3296,0.3323,0.3371,0.3437,0.3511,0.3573,0.3618,0.3724,0.3649,0.3812,0.3833,0.3873,0.38,0.3804,0.3753,0.3753,0.3753,0.3753,0.3251,0.3299,0.3345,0.3418,0.3486,0.3593,0.3672,0.3752,0.3769,0.3832,0.3887,0.3994,0.3916,0.3918,0.3895,0.3895,0.3895,0.3895,0.3895,0.325,0.3265,0.3356,0.3424,0.3529,0.3624,0.3784,0.3834,0.398,0.3952,0.3989,0.3872,0.3925,0.3899,0.3899,0.3898,0.3898,0.3897,0.3897,0.3195,0.3205,0.328,0.3383,0.3527,0.367,0.3802,0.3937,0.4039,0.4108,0.4042,0.4039,0.4028,0.4132,0.4133,0.4133,0.4134,0.4134,0.4134,0.3084,0.3154,0.3208,0.3355,0.3435,0.3595,0.3837,0.3925,0.4057,0.411,0.4109,0.4075,0.4067,0.4043,0.4142,0.4141,0.414,0.4139,0.4138,0.2969,0.3033,0.3094,0.3169,0.3333,0.3367,0.3636,0.3818,0.3981,0.4026,0.4107,0.4105,0.4088,0.4081,0.4059,0.4156,0.4156,0.4156,0.4156,0.2877,0.2917,0.2971,0.3031,0.3115,0.3246,0.3236,0.3416,0.3723,0.3821,0.3835,0.3715,0.3723,0.3678,0.3681,0.3647,0.3638,0.3636,0.3635,0.2787,0.2843,0.282,0.2913,0.2997,0.3019,0.2931,0.2922,0.3231,0.3608,0.368,0.4134,0.3991,0.3991,0.3946,0.3941,0.3897,0,0]},{"header":{"parameterUnit":"m.s-1","parameterCategory":2,"la1":30.2992,"la2":30.254,"lo1":-89.0895,"lo2":-89.0443,"dy":0.0025,"dx":0.0025,"nx":19,"ny":19,"refTime":"2026-05-03T09:00:00:Z","depth":"2","parameterNumber":3,"parameterNumberName":"V-component_of_CURRENTS"},"data":[0,0,0,0.0282,0.0282,0.0232,0.0232,0.0121,0.012,0,0,0,0,0,0,0,0,0,0,0,0.0302,0.0302,0.0283,0.0282,0.0232,0.0232,0.0122,0.012,0,0,0,0,0,0,0,0,0,0,0,0.0302,0.0302,0.0302,0.0281,0.0232,0.0232,0.0122,0.017,0,0,0,0,0,0,0,0,0,0,0.0223,0.0257,0.0302,0.0302,0.0281,0.0232,0.0232,0.0172,0.0167,0.0132,0,0.013,0,0.0122,0.0112,0.0112,0,0,0,0.0276,0.0263,0.0242,0.0302,0.0281,0.0232,0.0253,0.0169,0.0163,0.0124,0.0129,0.0125,0.012,0.0111,0.0111,0.0094,0.0095,0,0,0.0279,0.0296,0.0246,0.0238,0.0274,0.0255,0.0251,0.0166,0.0165,0.0128,0.0122,0.0118,0.0111,0.011,0.0094,0.0095,0,0,0,0.029,0.0298,0.0281,0.0242,0.0237,0.0253,0.025,0.0169,0.0161,0.0121,0.0117,0.011,0.0109,0.0093,0.0094,0.0237,0,0,0,0.0292,0.0305,0.0282,0.0292,0.0239,0.021,0.0255,0.0167,0.0157,0.0117,0.011,0.0107,0.0092,0.0094,0.0232,0.0314,0,0,0,0.0303,0.0306,0.0301,0.0293,0.0273,0.0212,0.0199,0.0165,0.0154,0.0112,0.0107,0.0092,0.0093,0.0227,0.0304,0.0367,0,0,0,0.0321,0.0347,0.0302,0.0336,0.0274,0.0291,0.02,0.0188,0.0161,0.0109,0.0092,0.0094,0.0225,0.0298,0.0361,0.0416,0.0447,0,0,0.037,0.0353,0.0377,0.0336,0.0389,0.0296,0.0346,0.0257,0.0174,0.0114,0.0113,0.0234,0.0304,0.0365,0.0514,0.0543,0,0,0,0.0404,0.0425,0.0434,0.045,0.0433,0.0442,0.0351,0.0313,0.0262,0.0165,0.0228,0.0268,0.0302,0.0323,0.0346,0.0102,0.0102,0.0102,0.0102,0.049,0.0494,0.0553,0.0559,0.0566,0.0532,0.053,0.0458,0.0353,0.0353,0.038,0.0522,0.0546,0.0563,0.0362,0.0363,0.0363,0.0364,0.0364,0.0595,0.0642,0.0649,0.0703,0.0702,0.0731,0.069,0.0632,0.0613,0.0505,0.0531,0.0468,0.0597,0.0375,0.0373,0.0372,0.037,0.037,0.0369,0.0664,0.0692,0.0713,0.0798,0.0876,0.0871,0.097,0.0888,0.0763,0.0789,0.0765,0.0762,0.0613,0.0787,0.0788,0.0789,0.0789,0.079,0.079,0.0725,0.0756,0.0836,0.0917,0.0996,0.1108,0.1131,0.1131,0.105,0.0942,0.0941,0.0664,0.065,0.0636,0.08,0.0799,0.0797,0.0796,0.0796,0.0828,0.0835,0.0966,0.1045,0.1244,0.1426,0.1421,0.1427,0.1363,0.1338,0.1012,0.1004,0.0961,0.094,0.0932,0.1164,0.1164,0.1164,0.1164,0.0899,0.0911,0.1096,0.1252,0.1452,0.158,0.1753,0.1677,0.1457,0.1277,0.1271,0.1189,0.1172,0.1133,0.1108,0.1099,0.1375,0.1375,0.1375,0.0983,0.1026,0.1173,0.1316,0.1548,0.1754,0.1909,0.1821,0.1478,0.138,0.1276,0.1184,0.1042,0.1024,0.0938,0.0909,0.0884,0,0]}],[{"header":{"parameterUnit":"m.s-1","parameterCategory":2,"la1":30.2992,"la2":30.254,"lo1":-89.0895,"lo2":-89.0443,"dy":0.0025,"dx":0.0025,"nx":19,"ny":19,"refTime":"2026-05-03T09:00:00:Z","depth":"4","parameterNumber":2,"parameterNumberName":"U-component_of_CURRENTS"},"data":[0,0,0,0.1938,0.1942,0.2143,0.2144,0.2325,0.2327,0,0,0,0,0,0,0,0,0,0,0,0.1883,0.1885,0.1938,0.1943,0.2143,0.2144,0.2325,0.2327,0,0,0,0,0,0,0,0,0,0,0,0.1882,0.1884,0.1887,0.1944,0.2142,0.2144,0.2325,0.2194,0,0,0,0,0,0,0,0,0,0,0.2009,0.1977,0.1884,0.1887,0.1945,0.2142,0.2144,0.2188,0.2202,0.2212,0,0.2259,0,0.2288,0.2337,0.2337,0,0,0,0.1949,0.1966,0.2007,0.1887,0.1946,0.2142,0.2054,0.2196,0.2212,0.2229,0.2261,0.2268,0.2291,0.2338,0.2338,0.2497,0.2497,0,0,0.1937,0.1929,0.1997,0.2017,0.2018,0.2048,0.206,0.2206,0.2236,0.2262,0.2273,0.2294,0.2339,0.234,0.2496,0.2497,0,0,0,0.1902,0.1921,0.1961,0.2009,0.2047,0.2053,0.2068,0.223,0.2241,0.2275,0.2296,0.2339,0.2341,0.2495,0.2496,0.2561,0,0,0,0.1896,0.1899,0.1956,0.1954,0.2045,0.2154,0.2088,0.2232,0.2249,0.2295,0.2339,0.2343,0.2495,0.2496,0.2558,0.2584,0,0,0,0.187,0.1897,0.1923,0.1953,0.2034,0.2152,0.2173,0.2236,0.226,0.2337,0.2343,0.2494,0.2496,0.2555,0.2579,0.2666,0,0,0,0.1848,0.1882,0.1924,0.1978,0.2032,0.2141,0.2172,0.2281,0.2351,0.234,0.2495,0.2496,0.2554,0.2576,0.2662,0.2342,0,0,0,0.1861,0.1884,0.1911,0.1952,0.2035,0.2113,0.2228,0.2339,0.2372,0.244,0.2445,0.2559,0.2579,0.2665,0.2431,0,0,0,0,0.1894,0.1916,0.195,0.202,0.2106,0.222,0.2323,0.2381,0.2498,0.242,0.2571,0.2581,0.2634,0.2436,0.2503,0.2503,0.2503,0.2503,0.2503,0.1889,0.1929,0.1984,0.2057,0.215,0.2309,0.2409,0.2509,0.2533,0.2601,0.2644,0.2764,0.2555,0.2654,0.2655,0.2655,0.2655,0.2655,0.2656,0.1882,0.1898,0.2003,0.2071,0.2208,0.2335,0.2518,0.2585,0.274,0.2713,0.2762,0.2527,0.2662,0.2661,0.266,0.2659,0.2659,0.2658,0.2658,0.1844,0.1852,0.1929,0.2048,0.2211,0.238,0.2542,0.2694,0.2801,0.2871,0.2697,0.2825,0.2812,0.2923,0.2924,0.2924,0.2925,0.2925,0.2926,0.1757,0.1826,0.1879,0.2026,0.2121,0.2307,0.2583,0.2685,0.2843,0.2744,0.2918,0.2854,0.2846,0.2828,0.2933,0.2932,0.2931,0.293,0.293,0.1661,0.1721,0.1776,0.1857,0.2041,0.2148,0.2447,0.2594,0.2692,0.2688,0.2676,0.2686,0.2641,0.2638,0.2611,0.2656,0.2652,0.2649,0,0.1586,0.1619,0.1676,0.1748,0.1837,0.2041,0.2112,0.2288,0.2445,0.2358,0.2683,0.2662,0.2668,0.2609,0.2601,0.2563,0,0,0,0.1515,0.1552,0.1554,0.1645,0.1723,0.1883,0.2118,0.2118,0.2409,0.2432,0.2556,0.258,0.2785,0.2957,0.2914,0.2903,0.2874,0,0]},{"header":{"parameterUnit":"m.s-1","parameterCategory":2,"la1":30.2992,"la2":30.254,"lo1":-89.0895,"lo2":-89.0443,"dy":0.0025,"dx":0.0025,"nx":19,"ny":19,"refTime":"2026-05-03T09:00:00:Z","depth":"4","parameterNumber":3,"parameterNumberName":"V-component_of_CURRENTS"},"data":[0,0,0,0.0303,0.0303,0.0291,0.0291,0.0233,0.0233,0,0,0,0,0,0,0,0,0,0,0,0.0318,0.0318,0.0303,0.0303,0.0291,0.0291,0.0233,0.0233,0,0,0,0,0,0,0,0,0,0,0,0.0318,0.0318,0.0318,0.0303,0.0291,0.0291,0.0234,0.0254,0,0,0,0,0,0,0,0,0,0,0.0271,0.029,0.0318,0.0318,0.0302,0.0291,0.0291,0.0255,0.0253,0.0226,0,0.0232,0,0.0223,0.0228,0.0227,0,0,0,0.0306,0.0293,0.0286,0.0318,0.0302,0.0291,0.0297,0.0254,0.0251,0.0222,0.0231,0.0228,0.0222,0.0227,0.0227,0.0214,0.0215,0,0,0.0306,0.0315,0.0289,0.0285,0.0307,0.0297,0.0296,0.0253,0.0253,0.023,0.0227,0.0221,0.0227,0.0226,0.0214,0.0214,0,0,0,0.0306,0.0316,0.0311,0.0287,0.0284,0.0297,0.0296,0.0256,0.0254,0.0226,0.022,0.0226,0.0225,0.0213,0.0214,0.0306,0,0,0,0.0307,0.0315,0.0312,0.0317,0.0285,0.0275,0.03,0.0258,0.0252,0.0221,0.0226,0.0225,0.0213,0.0214,0.0302,0.0358,0,0,0,0.0317,0.0316,0.0317,0.0317,0.0309,0.0275,0.0272,0.0257,0.0247,0.0227,0.0224,0.0213,0.0214,0.0299,0.0352,0.0364,0,0,0,0.0322,0.0341,0.0317,0.0345,0.0309,0.0328,0.0272,0.0273,0.0262,0.0226,0.0213,0.0214,0.0298,0.0348,0.0361,0.0382,0,0,0,0.0351,0.0345,0.0365,0.0343,0.0387,0.033,0.0366,0.032,0.0267,0.0223,0.0223,0.0304,0.0352,0.0363,0.0442,0,0,0,0,0.0378,0.0396,0.0406,0.0425,0.0421,0.043,0.0378,0.035,0.0319,0.0263,0.0299,0.0326,0.033,0.0333,0.0219,0.0219,0.0219,0.0219,0.0219,0.0423,0.0437,0.0485,0.0502,0.0511,0.0493,0.0489,0.0439,0.0377,0.0374,0.0397,0.0467,0.0474,0.0382,0.0383,0.0383,0.0383,0.0384,0.0384,0.049,0.0527,0.0549,0.06,0.0608,0.0633,0.0592,0.0554,0.0525,0.047,0.0468,0.0426,0.0393,0.0391,0.039,0.0389,0.0388,0.0387,0.0387,0.0527,0.055,0.0586,0.0667,0.0733,0.0735,0.0789,0.073,0.0623,0.063,0.0595,0.0522,0.0517,0.0619,0.0619,0.0619,0.062,0.062,0.062,0.0552,0.0591,0.0665,0.0746,0.0816,0.0898,0.0908,0.088,0.0778,0.0712,0.0657,0.0545,0.0537,0.0529,0.0625,0.0624,0.0623,0.0623,0.0623,0.0602,0.0626,0.0737,0.0812,0.0972,0.1032,0.105,0.0975,0.0934,0.0851,0.0731,0.0724,0.0687,0.0676,0.067,0.0812,0.0813,0.0813,0,0.0634,0.0653,0.0807,0.0935,0.1062,0.1112,0.1112,0.1069,0.0917,0.0903,0.0895,0.0763,0.0756,0.0716,0.0706,0.0702,0,0,0,0.0674,0.072,0.0828,0.0957,0.11,0.1115,0.1117,0.1075,0.0954,0.0912,0.083,0.0825,0.0751,0.064,0.0566,0.0557,0.0539,0,0]}]]